NOAA 16 DEB

Satellite information

Favourite Embed

Satellite Type and Status

DEBRISIN ORBIT

Key statistics

Satellite NOAA 16 DEB at a glance.

Uptime

9055

Days in orbit

Revolutions

≈ 14.2

Per day

Orbit

SSO

Sun Synchronous Orbit

Inclination

98.7

Latest

Satellite identification and parameters

Extended collection of information and parameters for NOAA 16 DEB.

Object identification

Identified? True

Debris? True

Object name: NOAA 16 DEB

International designator: 2000-055D

Object number (NORAD): 41046

Object ID (CCSDS): 41046

Country: UNITED STATES OF AMERICA (US)

Current information (Y/N): Y

RCS size: SMALL

Orbital parameters

Period: 101.526 minutes

Inclination: 98.6547 deg

SMA: 7209.076 km

Apoapsis: 839.63 km

Periapsis: 822.252 km

RAAN: 256.4384 deg

Eccentricy: 0.0012053

Argument of periapsis: 229.3676 deg

Mean anomaly: 130.6452 deg

Mean motion: 14.18349785 rev/day

Mean motion (dot): 0.00000549 rev/day2

B* drag term: 0.00028713 1/REarth

Two-line elements (TLE)

Creation date: July 6, 2025, 10:56 p.m.

Reference frame: TEME

Reference center: EARTH

Epoch: July 6, 2025, 5:33 p.m. UTC

TLE line 0: 0 NOAA 16 DEB

TLE line 1: 1 41046U 00055D 25187.73190451 .00000549 00000-0 28713-3 0 9990

TLE line 2: 2 41046 98.6547 256.4384 0012053 229.3676 130.6452 14.18349785496509

Live tracking on map

Real-time ground track for satellite NOAA 16 DEB.

In-orbit conjunctions

A list of the most updated potential collisions computed for object NOAA 16 DEB.

Target Orbit TCA Probability of collision Miss distance Type
FENGYUN 1C DEB SSO 2025-03-23 15:26:20 0.0001186217 92.0 (m) DEBRIS
FENGYUN 1C DEB SSO 2025-03-22 04:28:45 0.0001367779 273.0 (m) DEBRIS
CZ-6A DEB LEO 2024-10-24 22:46:22 0.000120261 880.0 (m) DEBRIS

Associated space launch

The NOAA K, L and M POES satellites begin the fifth generation of improved environmental monitoring in support of NOAA missions. The instrument payload has significant improvements and additions/deletions. The instrument changes have effected the spacecraft subsystems and data formats.

NOAA 16 DEB was lifted into orbit during the mission ‘Titan II SLV | NOAA 16’, on board a Titan II SLV space rocket.

The launch took place on Sept. 21, 2000, 10:22 a.m. from Space Launch Complex 4W.

For more information about the launch, click the button.

Launch to space Titan II SLV | NOAA 16
Titan II SLV | NOAA 16

Agency: N/A

Status: Launch Successful

Launch date: Sept. 21, 2000, 10:22 a.m. UTC

Rocket: Titan II SLV

Launch pad: Space Launch Complex 4W

Location: Vandenberg SFB, CA, USA

...

Latest news about this satellite

There are no fresh news available about this satellite. Check back as we update our databases every day.


Newsletter sign-up

Weekly statistics, charts and insights to help you stay on top of the space industry.